Zakynthos, Greece

6:29 PM EEST on April 25, 2017 (GMT +0300)
Dionysios Solomos

Weather History for LGZA - September, 2013

Change the Weather History Date:

Monday, September 2, 2013

  Actual Average Record
Temperature  
Mean Temperature 77 °F -  
Max Temperature 86 °F 81 °F 91 °F (2003)
Min Temperature 68 °F 66 °F 64 °F (2015)
Cooling Degree Days 12    
Growing Degree Days 27 (Base 50)    
Moisture  
Dew Point 62 °F    
Average Humidity 58    
Maximum Humidity 78    
Minimum Humidity 43    
Precipitation  
Precipitation 0.00 in 0.04 in - ()
Sea Level Pressure  
Sea Level Pressure 30.04 in    
Wind  
Wind Speed 2 mph ()    
Max Wind Speed 8 mph    
Max Gust Speed -    
Visibility 6.2 miles    
Events      
Averages and records for this station are not official NWS values.
T = Trace of Precipitation, MM = Missing Value Source: Averaged Metar Reports

Daily Weather History Graph

Daily Weather History Graph

Search for Another Location

Airport or City:

Trip Planner

Search our weather history database for the weather conditions in past years. The results will help you decide how hot, cold, wet, or windy it might be!

Date:

Astronomy

Sep. 02, 2013 Rise Set
Actual Time 7:07 AM EEST 8:04 PM EEST
Civil Twilight 6:40 AM EEST 8:31 PM EEST
Nautical Twilight 6:08 AM EEST 9:02 PM EEST
Astronomical Twilight 5:35 AM EEST 9:35 PM EEST
Moon 4:09 AM EEST (9/2) 6:05 PM EEST (9/2)
Length of Visible Light 13h 50m
Length of Day
12h 56m
Waning Crescent, 9% of the Moon is Illuminated
Sep 2
Waning Crescent
Sep 5
New
Sep 12
First Quarter
Sep 19
Full
Sep 27
Last Quarter

Hourly Weather History & Observations

Time (EEST) Temp. Heat Index Dew Point Humidity Pressure Visibility Wind Dir Wind Speed Gust Speed Precip Events Conditions
3:50 AM 69.8 °F - 62.6 °F 78% 30.01 in 6.2 mi Calm Calm - N/A   Partly Cloudy
4:20 AM 69.8 °F - 62.6 °F 78% 30.01 in 6.2 mi Calm Calm - N/A   Partly Cloudy
4:50 AM 69.8 °F - 60.8 °F 73% 30.01 in 6.2 mi Calm Calm - N/A   Partly Cloudy
5:20 AM 69.8 °F - 60.8 °F 73% 30.01 in 6.2 mi Calm Calm - N/A   Partly Cloudy
5:50 AM 68.0 °F - 60.8 °F 78% 30.01 in 6.2 mi Calm Calm - N/A   Partly Cloudy
6:20 AM 69.8 °F - 60.8 °F 73% 30.01 in 6.2 mi Calm Calm - N/A   Partly Cloudy
6:50 AM 68.0 °F - 60.8 °F 78% 30.01 in 6.2 mi Calm Calm - N/A   Partly Cloudy
7:20 AM 68.0 °F - 60.8 °F 78% 30.01 in 6.2 mi Calm Calm - N/A   Partly Cloudy
7:50 AM 68.0 °F - 59.0 °F 73% 30.04 in 6.2 mi Calm Calm - N/A   Scattered Clouds
8:20 AM 69.8 °F - 60.8 °F 73% 30.04 in 6.2 mi Calm Calm - N/A   Scattered Clouds
8:50 AM 75.2 °F - 62.6 °F 65% 30.04 in 6.2 mi Calm Calm - N/A   Scattered Clouds
9:20 AM 77.0 °F - 62.6 °F 61% 30.04 in 6.2 mi Calm Calm - N/A   Scattered Clouds
9:50 AM 80.6 °F 81.8 °F 62.6 °F 54% 30.04 in 6.2 mi Calm Calm - N/A   Partly Cloudy
10:20 AM 82.4 °F 83.4 °F 62.6 °F 51% 30.06 in 6.2 mi NE 4.6 mph - N/A   Partly Cloudy
10:50 AM 84.2 °F 85.6 °F 64.4 °F 51% 30.06 in 6.2 mi NE 4.6 mph - N/A   Partly Cloudy
11:20 AM 84.2 °F 85.6 °F 64.4 °F 51% 30.06 in 6.2 mi NE 4.6 mph - N/A   Partly Cloudy
11:50 AM 84.2 °F 85.0 °F 62.6 °F 48% 30.06 in 6.2 mi NNE 5.8 mph - N/A   Partly Cloudy
12:20 PM 84.2 °F 85.0 °F 62.6 °F 48% 30.06 in 6.2 mi NNE 5.8 mph - N/A   Partly Cloudy
12:50 PM 84.2 °F 85.0 °F 62.6 °F 48% 30.06 in 6.2 mi NNE 6.9 mph - N/A   Scattered Clouds
1:20 PM 84.2 °F 85.0 °F 62.6 °F 48% 30.06 in 6.2 mi NE 4.6 mph - N/A   Scattered Clouds
1:50 PM 84.2 °F 85.0 °F 62.6 °F 48% 30.06 in 6.2 mi ESE 6.9 mph - N/A   Scattered Clouds
2:20 PM 82.4 °F 83.4 °F 62.6 °F 51% 30.06 in 6.2 mi East 4.6 mph - N/A   Scattered Clouds
2:50 PM 82.4 °F 83.4 °F 62.6 °F 51% 30.06 in 6.2 mi NE 5.8 mph - N/A   Mostly Cloudy
3:20 PM 84.2 °F 84.4 °F 60.8 °F 45% 30.06 in 6.2 mi East 4.6 mph - N/A   Mostly Cloudy
3:50 PM 84.2 °F 84.4 °F 60.8 °F 45% 30.06 in 6.2 mi NE 4.6 mph - N/A   Mostly Cloudy
4:20 PM 84.2 °F 84.4 °F 60.8 °F 45% 30.06 in 6.2 mi NE 4.6 mph - N/A   Mostly Cloudy
4:50 PM 84.2 °F 84.4 °F 60.8 °F 45% 30.06 in 6.2 mi North 6.9 mph - N/A   Scattered Clouds
5:20 PM 86.0 °F 86.1 °F 60.8 °F 43% 30.04 in 6.2 mi NNW 8.1 mph - N/A   Scattered Clouds
5:50 PM 86.0 °F 86.6 °F 62.6 °F 45% 30.04 in 6.2 mi NW 8.1 mph - N/A   Scattered Clouds
6:20 PM 84.2 °F 85.0 °F 62.6 °F 48% 30.04 in 6.2 mi NW 4.6 mph - N/A   Scattered Clouds
6:50 PM 82.4 °F 83.9 °F 64.4 °F 54% 30.04 in 6.2 mi South 4.6 mph - N/A   Scattered Clouds
7:20 PM 82.4 °F 83.9 °F 64.4 °F 54% 30.04 in 6.2 mi North 8.1 mph - N/A   Scattered Clouds
7:50 PM 80.6 °F 81.8 °F 62.6 °F 54% 30.04 in 6.2 mi NNW 8.1 mph - N/A   Partly Cloudy
8:20 PM 80.6 °F 82.3 °F 64.4 °F 58% 30.04 in 6.2 mi NNW 4.6 mph - N/A   Partly Cloudy
8:50 PM 78.8 °F - 64.4 °F 61% 30.06 in 6.2 mi WNW 4.6 mph - N/A   Partly Cloudy